CAPE
26 12 0 0 0 0 0 1 1 2 1 1 0 0 0 1 0 0 0 0 0 0 0 0 0 0 0 0 0 0 0 0 0 0 0 0 0 0 0 0 0 0 0 0 0 0 0 0 0 0 0 0 0 0
8 8 0 0 0 0 1 1 0 1 1 1 1 0 0 1 0 0 0 0 0 0 0 0 0 0 0 0 0 0 0 0 0 0 0 0 0 0 0 0 0 0 0 0 0 0 0 0 0 0 0 0 0 0
2 3 0 0 0 0 1 1 0 0 1 0 1 0 0 0 0 0 0 0 0 0 0 0 0 0 0 0 0 0 0 0 0 0 0 0 0 0 0 0 0 0 0 0 0 0 0 0 0 0 0 0 0 0
2 0 0 0 0 0 1 0 0 1 0 0 0 0 0 0 0 0 0 0 0 0 0 0 0 0 0 0 0 0 0 0 0 0 0 0 0 0 0 0 0 0 0 0 0 0 0 0 0 0 0 0 0 0
1 0 0 0 0 0 1 0 0 0 0 0 0 2 1 1 1 0 0 0 0 0 0 1 0 0 0 0 0 0 0 0 0 0 0 0 0 0 0 0 0 0 0 0 0 0 0 0 0 0 0 0 0 0
1 1 0 0 0 0 0 0 0 0 0 0 0 1 1 2 0 0 0 0 0 0 0 0 0 0 0 0 0 0 0 0 0 0 0 0 0 0 0 0 0 0 0 0 0 0 0 0 0 0 0 0 0 0
1 2 0 0 0 0 1 0 0 1 1 0 1 3 6 1 0 0 0 0 0 0 0 0 0 0 0 0 0 0 0 0 0 0 0 0 0 0 0 0 0 0 0 0 0 0 0 0 0 0 0 0 0 0
1 2 3 0 0 0 0 0 0 0 0 1 3 7 6 0 0 0 0 0 0 0 1 0 0 0 0 1 0 0 0 0 0 0 0 0 0 0 0 0 0 0 0 0 0 0 0 0 0 0 0 0 0 0
4 7 18 10 4 0 0 0 0 0 0 0 4 8 3 0 0 0 0 0 0 0 0 0 0 2 0 0 0 0 0 0 0 0 0 0 0 0 0 0 0 0 0 0 0 0 0 0 0 0 0 0 0 0
3 3 3 2 6 4 0 0 0 0 0 6 7 0 0 0 0 0 0 0 1 0 0 0 0 0 0 0 1 0 0 0 0 0 0 1 0 0 0 0 0 0 0 0 0 0 0 0 0 0 0 0 0 0
5 2 1 1 1 4 3 3 0 0 11 4 0 0 1 0 0 0 0 0 0 0 0 0 0 0 0 0 0 0 0 0 0 0 0 0 0 0 0 0 0 0 0 0 0 0 0 0 0 0 0 0 0 0
8 4 2 5 0 1 10 10 6 10 0 0 0 0 0 0 0 0 0 0 0 0 0 1 0 0 0 0 0 0 0 0 0 0 0 0 0 0 0 0 0 0 0 0 0 0 0 0 0 0 0 0 0 0
2 3 4 2 1 0 1 27 27 0 0 0 0 0 0 0 0 0 0 0 0 0 0 0 0 0 0 0 0 0 2 0 0 1 0 0 0 0 0 0 0 0 0 0 0 0 0 0 0 0 0 0 0 0
3 2 3 3 3 1 0 1 1 0 4 0 0 0 0 0 0 0 0 0 0 0 0 0 0 0 0 0 0 0 0 0 1 0 0 0 0 0 0 0 0 0 0 0 0 0 0 0 0 0 0 0 0 0
13 6 2 0 4 4 3 0 3 8 6 0 0 0 0 0 0 0 0 0 0 0 0 0 0 0 0 0 0 0 0 0 0 0 0 0 0 0 0 0 0 0 0 0 0 0 0 0 0 0 0 0 0 0
7 16 0 0 2 6 11 12 6 0 2 0 0 0 0 0 0 0 0 0 0 0 0 0 0 0 0 0 0 0 0 0 0 0 0 0 0 0 0 0 0 0 0 0 0 0 0 0 0 0 0 0 0 0
1 0 7 3 4 6 11 2 4 0 0 0 0 0 0 0 0 0 0 0 0 0 0 0 0 0 0 0 0 0 0 0 0 0 0 0 0 0 0 0 0 0 0 0 0 0 0 0 0 0 0 0 0 0
3 0 0 8 16 4 3 2 0 0 0 0 0 0 0 0 0 0 0 0 0 0 0 0 0 0 0 0 0 0 0 0 0 0 0 0 0 0 0 0 0 0 0 0 0 0 0 0 0 0 0 0 0 0
0 0 0 2 20 2 0 0 0 0 0 0 0 0 0 0 0 0 0 0 0 0 0 0 0 0 0 0 0 0 0 0 0 0 0 0 0 0 0 0 0 0 0 0 0 0 0 0 0 0 0 0 0 0
7 11 2 0 3 3 0 0 0 0 0 0 0 0 0 0 0 0 0 0 0 0 0 0 0 0 0 0 0 0 0 0 0 0 0 0 0 0 0 0 0 0 0 0 0 0 0 0 0 0 0 0 0 0
11 8 2 0 0 0 0 0 0 0 0 0 0 0 0 0 0 0 0 0 0 0 0 0 0 0 0 0 0 0 0 0 0 0 0 0 0 0 0 0 0 0 0 0 0 0 0 0 0 0 0 0 0 0
0 4 0 1 0 0 0 0 0 0 0 0 0 0 0 0 0 0 0 0 0 0 0 0 0 0 0 0 0 0 0 0 0 0 0 0 0 0 0 0 0 0 0 0 0 0 0 0 0 0 0 0 0 0
1 0 0 0 0 0 0 0 0 0 0 0 0 0 0 0 0 0 0 0 0 0 0 0 0 0 0 0 0 0 0 0 0 0 0 0 0 0 0 0 0 0 0 0 0 0 0 0 0 0 0 0 0 0
0 0 0 0 0 0 0 0 0 0 0 0 0 0 0 0 0 0 0 0 0 0 0 0 0 0 0 0 0 0 0 0 0 0 0 0 0 0 0 0 0 0 0 0 0 0 0 0 0 0 0 0 0 0
0 0 0 0 0 0 0 0 0 0 0 0 0 0 0 0 0 0 0 0 0 0 0 0 0 0 0 0 0 0 0 0 0 0 0 0 0 0 0 0 0 0 0 0 0 0 0 0 0 0 0 0 0 0
0 0 0 0 0 0 0 0 0 0 0 0 0 0 0 0 0 0 0 0 0 0 0 0 0 0 0 0 0 0 0 0 0 0 0 0 0 0 0 0 0 0 0 0 0 0 0 0 0 0 0 0 0 0
0 0 0 0 0 0 0 0 0 0 0 0 0 0 0 0 0 0 0 0 0 0 0 0 0 0 0 0 0 0 0 0 0 0 0 0 0 0 0 0 0 0 0 0 0 0 0 0 0 0 0 0 0 0
0 0 0 0 0 0 0 0 0 0 0 0 0 0 0 0 0 0 0 0 0 0 0 0 0 0 0 0 0 0 0 0 0 0 0 0 0 0 0 0 0 0 0 0 0 0 0 0 0 0 0 0 0 0
0 0 0 0 0 0 0 0 0 0 0 0 0 0 0 0 0 0 0 0 0 0 0 0 0 0 0 0 0 0 0 0 0 0 0 0 0 0 0 0 0 0 0 0 0 0 0 0 0 0 0 0 0 0
0 0 0 0 0 0 0 0 0 0 0 0 0 0 0 0 0 0 0 0 0 0 0 0 0 0 0 0 0 0 0 0 0 0 0 0 0 0 0 0 0 0 0 0 0 0 0 0 0 0 0 0 0 0
0 0 0 0 0 0 0 0 0 0 0 0 0 0 0 0 0 0 0 0 0 0 0 0 0 0 0 0 0 0 0 0 0 0 0 0 0 0 0 0 0 0 0 0 0 0 0 0 0 0 0 0 0 0
0 0 0 0 0 0 0 0 0 0 0 0 0 0 0 0 0 0 0 0 0 0 0 0 0 0 0 0 0 0 0 0 0 0 0 0 0 0 0 0 0 0 0 0 0 0 0 0 0 0 0 0 0 0
0 0 0 0 0 0 0 0 0 0 0 0 0 0 0 0 0 0 0 0 0 0 0 0 0 0 0 0 0 0 0 0 0 0 0 0 0 0 0 0 0 0 0 0 0 0 0 0 0 0 0 0 0 0
CIN
-6 -18 -0 -0 -0 -0 -0 -2 -4 -3 -3 -5 -0 -0 -0 -0 -0 -0 -0 -0 -0 -0 -0 -0 -0 -0 -0 -0 -0 -0 -0 -0 -0 -0 -0 -0 -0 -0 -0 -0 -0 -0 -0 -0 -0 -0 -0 -0 -0 -0 -0 -0 -0 -0
-1 -13 -0 -0 -0 -2 -3 -4 -4 -5 -3 -2 -3 -4 -0 -0 -0 -0 -0 -0 -0 -0 -0 -0 -0 -0 -0 -0 -0 -0 -0 -0 -0 -0 -0 -0 -0 -0 -0 -0 -0 -0 -0 -0 -0 -0 -0 -0 -0 -0 -0 -0 -0 -0
-0 -26 -0 -0 -0 -2 -1 -1 -1 -3 -2 -2 -2 -4 -0 -0 -0 -0 -0 -0 -0 -0 -0 -0 -0 -0 -0 -0 -0 -0 -0 -0 -0 -0 -0 -0 -0 -0 -0 -0 -0 -0 -0 -0 -0 -0 -0 -0 -0 -0 -0 -0 -0 -0
-0 -20 -0 -0 -0 -0 -1 -0 -1 -1 -4 -0 -0 -0 -3 -0 -0 -0 -0 -0 -0 -0 -0 -0 -0 -0 -0 -0 -0 -0 -0 -0 -0 -0 -0 -0 -0 -0 -0 -0 -0 -0 -0 -0 -0 -0 -0 -0 -0 -0 -0 -0 -0 -0
-0 -0 -0 -0 -0 -0 -2 -1 -0 -0 -0 -0 -0 -0 -0 -1 -0 -0 -0 -0 -0 -0 -0 -0 -0 -0 -0 -0 -0 -0 -0 -0 -0 -0 -0 -0 -0 -0 -0 -0 -0 -0 -0 -0 -0 -0 -0 -0 -0 -0 -0 -0 -0 -0
-0 -0 -0 -0 -0 -0 -2 -1 -0 -1 -0 -0 -0 -15 -0 -0 -0 -0 -0 -0 -0 -0 -0 -0 -0 -0 -0 -0 -0 -0 -0 -0 -0 -0 -0 -0 -0 -0 -0 -0 -0 -0 -0 -0 -0 -0 -0 -0 -0 -0 -0 -0 -0 -0
-0 -0 -0 -0 -0 -1 -2 -0 -1 -2 -2 -0 -9 -12 -15 -9 -22 -0 -0 -0 -0 -0 -0 -0 -0 -0 -0 -0 -0 -0 -0 -0 -0 -0 -0 -0 -0 -0 -0 -0 -0 -0 -0 -0 -0 -0 -0 -0 -0 -0 -0 -0 -0 -0
-0 -0 -0 -0 -0 -2 -4 -0 -0 -2 -2 -4 -10 -11 -12 -0 -0 -0 -0 -0 -0 -0 -49 -0 -0 -1 -0 -0 -0 -0 -0 -0 -0 -0 -0 -7 -0 -0 -0 -0 -0 -0 -0 -0 -0 -0 -0 -0 -0 -0 -0 -0 -0 -0
-0 -0 -0 -0 -0 -0 -0 -0 -0 -0 -4 -4 -9 -11 -14 -0 -0 -5 -0 -0 -0 -0 -0 -0 -2 -0 -0 -0 -0 -0 -0 -0 -0 -0 -0 -0 -0 -0 -0 -0 -0 -0 -0 -0 -0 -0 -0 -0 -0 -0 -0 -0 -0 -0
-0 -0 -0 -0 -0 -0 -0 -0 -0 -0 -6 -4 -4 -0 -4 -0 -0 -0 -0 -0 -6 -3 -0 -0 -0 -0 -0 -0 -0 -0 -0 -0 -1 -0 -0 -0 -0 -0 -0 -0 -0 -0 -0 -0 -0 -0 -0 -0 -0 -0 -0 -0 -0 -0
-0 -0 -0 -0 -0 -0 -0 -0 -2 -3 -1 -3 -0 -0 -0 -0 -0 -0 -0 -0 -0 -0 -0 -0 -0 -0 -0 -0 -0 -0 -0 -0 -0 -0 -4 -0 -0 -0 -0 -0 -0 -0 -0 -0 -0 -0 -0 -0 -0 -0 -0 -0 -0 -0
-0 -0 -0 -0 -0 -0 -0 -0 -0 -0 -1 -0 -0 -0 -0 -0 -0 -0 -0 -0 -0 -0 -0 -2 -0 -0 -0 -0 -0 -0 -0 -0 -0 -0 -0 -0 -0 -0 -0 -0 -0 -0 -0 -0 -0 -0 -0 -0 -0 -0 -0 -0 -0 -0
-0 -0 -0 -1 -1 -0 -0 -0 -0 -0 -0 -0 -0 -0 -0 -0 -0 -0 -0 -0 -0 -0 -1 -0 -0 -0 -0 -0 -0 -0 -0 -0 -0 -1 -0 -0 -0 -0 -0 -0 -0 -0 -0 -0 -0 -0 -0 -0 -0 -0 -0 -0 -0 -0
-0 -0 -0 -0 -1 -2 -0 -0 -0 -0 -3 -0 -0 -0 -0 -0 -0 -0 -0 -0 -0 -0 -0 -2 -0 -0 -0 -0 -0 -0 -0 -0 -0 -0 -0 -0 -0 -0 -0 -0 -0 -0 -0 -0 -0 -0 -0 -0 -0 -0 -0 -0 -0 -0
-0 -0 -0 -1 -0 -1 -1 -0 -2 -3 -0 -0 -0 -0 -0 -0 -0 -0 -0 -0 -0 -0 -0 -0 -0 -0 -0 -0 -0 -0 -0 -0 -0 -0 -0 -0 -0 -0 -0 -0 -0 -0 -0 -0 -0 -0 -0 -0 -0 -0 -0 -0 -0 -0
-0 -0 -0 -0 -0 -1 -0 -0 -1 -1 -0 -0 -0 -0 -0 -0 -0 -0 -0 -0 -0 -0 -0 -0 -0 -0 -0 -0 -0 -0 -0 -0 -0 -0 -0 -0 -0 -0 -0 -0 -0 -0 -0 -0 -0 -0 -0 -0 -0 -0 -0 -0 -0 -0
-0 -0 -5 -5 -3 -0 -0 -0 -0 -0 -0 -0 -0 -0 -0 -0 -0 -0 -0 -0 -0 -0 -0 -0 -0 -0 -0 -0 -0 -0 -0 -0 -0 -0 -0 -0 -0 -0 -0 -0 -0 -0 -0 -0 -0 -0 -0 -0 -0 -0 -0 -0 -0 -0
-0 -0 -0 -0 -1 -0 -0 -0 -0 -0 -0 -0 -0 -0 -0 -0 -0 -0 -0 -0 -0 -0 -0 -0 -0 -0 -0 -0 -0 -0 -0 -0 -0 -0 -0 -0 -0 -0 -0 -0 -0 -0 -0 -0 -0 -0 -0 -0 -0 -0 -0 -0 -0 -0
-2 -0 -0 -2 -0 -1 -0 -0 -0 -0 -0 -0 -0 -0 -0 -0 -0 -0 -0 -0 -0 -0 -0 -0 -0 -0 -0 -0 -0 -0 -0 -0 -0 -0 -0 -0 -0 -0 -0 -0 -0 -0 -0 -0 -0 -0 -0 -0 -0 -0 -0 -0 -0 -0
-4 -0 -1 -0 -2 -3 -0 -0 -0 -0 -0 -0 -0 -0 -0 -0 -0 -0 -0 -0 -0 -0 -0 -0 -0 -0 -0 -0 -0 -0 -0 -0 -0 -0 -0 -0 -0 -0 -0 -0 -0 -0 -0 -0 -0 -0 -0 -0 -0 -0 -0 -0 -0 -0
-0 -0 -2 -0 -0 -0 -0 -0 -0 -0 -0 -0 -0 -0 -0 -0 -0 -0 -0 -0 -0 -0 -0 -0 -0 -0 -0 -0 -0 -0 -0 -0 -0 -0 -0 -0 -0 -0 -0 -0 -0 -0 -0 -0 -0 -0 -0 -0 -0 -0 -0 -0 -0 -0
-0 -0 -0 -0 -0 -0 -0 -0 -0 -0 -0 -0 -0 -0 -0 -0 -0 -0 -0 -0 -0 -0 -0 -0 -0 -0 -0 -0 -0 -0 -0 -0 -0 -0 -0 -0 -0 -0 -0 -0 -0 -0 -0 -0 -0 -0 -0 -0 -0 -0 -0 -0 -0 -0
-0 -0 -0 -0 -0 -0 -0 -0 -0 -0 -0 -0 -0 -0 -0 -0 -0 -0 -0 -0 -0 -0 -0 -0 -0 -0 -0 -0 -0 -0 -0 -0 -0 -0 -0 -0 -0 -0 -0 -0 -0 -0 -0 -0 -0 -0 -0 -0 -0 -0 -0 -0 -0 -0
-0 -0 -0 -0 -0 -0 -0 -0 -0 -0 -0 -0 -0 -0 -0 -0 -0 -0 -0 -0 -0 -0 -0 -0 -0 -0 -0 -0 -0 -0 -0 -0 -0 -0 -0 -0 -0 -0 -0 -0 -0 -0 -0 -0 -0 -0 -0 -0 -0 -0 -0 -0 -0 -0
-0 -0 -0 -0 -0 -0 -0 -0 -0 -0 -0 -0 -0 -0 -0 -0 -0 -0 -0 -0 -0 -0 -0 -0 -0 -0 -0 -0 -0 -0 -0 -0 -0 -0 -0 -0 -0 -0 -0 -0 -0 -0 -0 -0 -0 -0 -0 -0 -0 -0 -0 -0 -0 -0
-15 -0 -0 -0 -0 -0 -0 -0 -0 -0 -0 -0 -0 -0 -0 -0 -0 -0 -0 -0 -0 -0 -0 -0 -0 -0 -0 -0 -0 -0 -0 -0 -0 -0 -0 -0 -0 -0 -0 -0 -0 -0 -0 -0 -0 -0 -0 -0 -0 -0 -0 -0 -0 -0
-0 -0 -0 -0 -0 -0 -0 -0 -0 -0 -0 -0 -0 -0 -0 -0 -0 -0 -0 -0 -0 -0 -0 -0 -0 -0 -0 -0 -0 -0 -0 -0 -0 -0 -0 -0 -0 -0 -0 -0 -0 -0 -0 -0 -0 -0 -0 -0 -0 -0 -0 -0 -0 -0
-0 -0 -0 -0 -0 -0 -0 -0 -0 -0 -0 -0 -0 -0 -0 -0 -0 -0 -0 -0 -0 -0 -0 -0 -0 -0 -0 -0 -0 -0 -0 -0 -0 -0 -0 -0 -0 -0 -0 -0 -0 -0 -0 -0 -0 -0 -0 -0 -0 -0 -0 -0 -0 -0
-0 -0 -0 -0 -0 -0 -0 -0 -0 -0 -0 -0 -0 -0 -0 -0 -0 -0 -0 -0 -0 -0 -0 -0 -0 -0 -0 -0 -0 -0 -0 -0 -0 -0 -0 -0 -0 -0 -0 -0 -0 -0 -0 -0 -0 -0 -0 -0 -0 -0 -0 -0 -0 -0
-0 -0 -0 -0 -0 -0 -0 -0 -0 -0 -0 -0 -0 -0 -0 -0 -0 -0 -0 -0 -0 -0 -0 -0 -0 -0 -0 -0 -0 -0 -0 -0 -0 -0 -0 -0 -0 -0 -0 -0 -0 -0 -0 -0 -0 -0 -0 -0 -0 -0 -0 -0 -0 -0
-0 -0 -0 -0 -0 -0 -0 -0 -0 -0 -0 -0 -0 -0 -0 -0 -0 -0 -0 -0 -0 -0 -0 -0 -0 -0 -0 -0 -0 -0 -0 -0 -0 -0 -0 -0 -0 -0 -0 -0 -0 -0 -0 -0 -0 -0 -0 -0 -0 -0 -0 -0 -0 -0
-0 -0 -0 -0 -0 -0 -0 -0 -0 -0 -0 -0 -0 -0 -0 -0 -0 -0 -0 -0 -0 -0 -0 -0 -0 -0 -0 -0 -0 -0 -0 -0 -0 -0 -0 -0 -0 -0 -0 -0 -0 -0 -0 -0 -0 -0 -0 -0 -0 -0 -0 -0 -0 -0
-0 -0 -0 -0 -0 -0 -0 -0 -0 -0 -0 -0 -0 -0 -0 -0 -0 -0 -0 -0 -0 -0 -0 -0 -0 -0 -0 -0 -0 -0 -0 -0 -0 -0 -0 -0 -0 -0 -0 -0 -0 -0 -0 -0 -0 -0 -0 -0 -0 -0 -0 -0 -0 -0
Wind_Speed
36 33 29 25 24 24 24 20 18 17 17 18 18 19 19 17 17 16 16 15 15 16 15 16 15 13 13 14 11 8 9 15 13 13 14 14 15 16 19 18 18 18 15 18 19 21 24 18 16 18 17 19 23 27
39 32 26 22 23 22 21 19 18 17 15 16 17 17 18 18 16 16 17 16 15 15 16 16 15 15 16 15 12 14 15 14 12 11 13 14 17 16 17 22 14 18 15 17 14 18 14 16 15 15 18 22 26 29
40 30 26 22 21 20 20 19 17 15 14 15 16 16 16 17 16 15 14 16 15 16 16 17 19 17 16 16 16 17 18 15 14 14 12 16 20 16 20 20 16 16 15 19 18 19 17 18 16 20 21 25 25 27
41 28 25 23 18 20 19 18 17 14 13 13 15 15 14 14 14 16 17 16 14 15 21 20 17 17 19 17 17 16 13 13 12 15 17 19 21 15 18 19 17 15 17 18 20 22 21 15 21 21 23 25 27 27
33 28 25 21 18 20 19 17 15 13 12 12 12 13 12 12 11 11 13 15 15 19 20 19 16 18 18 16 14 13 12 15 18 19 20 20 19 17 19 19 19 16 14 17 22 21 20 22 25 25 27 27 27 27
30 26 24 21 19 19 19 16 14 13 12 11 10 10 10 10 8 14 17 18 17 16 17 20 18 19 16 13 13 15 16 17 18 19 19 19 18 17 18 19 18 15 15 16 17 17 23 24 23 24 27 29 30 30
27 26 23 21 20 20 18 16 14 12 11 10 9 9 9 9 11 14 16 17 17 15 16 18 21 19 16 15 16 15 15 17 18 19 19 18 19 19 20 22 20 17 16 18 19 19 23 23 29 28 29 30 30 30
20 29 24 22 21 20 18 17 15 12 11 9 8 6 6 5 7 15 16 14 12 12 15 19 19 17 17 18 18 17 17 17 19 18 17 17 17 18 22 18 16 16 18 19 19 22 24 26 27 27 28 30 32 31
15 15 26 25 22 22 20 18 16 13 10 6 3 4 11 14 15 15 14 13 13 15 19 19 19 21 13 15 15 15 16 19 18 19 18 15 17 19 17 19 18 18 20 22 21 25 27 29 27 29 31 32 31 30
17 16 14 18 24 23 21 18 16 14 11 7 8 16 17 15 12 13 16 17 19 20 19 21 16 18 14 14 16 15 17 17 20 19 14 22 24 23 22 21 21 22 23 22 26 30 25 28 30 32 32 29 27 27
17 18 20 18 16 22 22 19 17 15 13 16 18 19 12 11 14 17 20 20 21 23 21 20 17 15 14 16 16 17 17 18 22 21 20 25 26 23 23 19 18 18 18 18 20 22 24 27 30 31 30 27 26 25
19 18 20 20 20 17 22 20 18 17 20 18 12 7 10 16 19 21 22 22 22 24 19 16 16 14 14 13 16 16 19 18 23 17 21 27 24 22 18 18 17 16 16 17 20 25 28 29 29 28 27 26 24 22
21 21 21 22 23 23 20 22 21 13 10 13 17 19 20 21 25 25 25 24 23 17 14 12 12 13 13 15 16 17 20 22 14 20 25 22 20 19 17 17 18 18 20 23 27 29 29 28 27 26 25 24 22 21
22 21 22 22 23 25 24 23 17 16 17 22 23 25 27 25 26 24 22 19 17 12 6 5 9 13 14 15 16 18 17 16 22 25 26 21 17 16 16 18 20 23 23 26 29 29 29 28 27 25 24 22 21 21
22 22 23 24 24 24 27 26 20 20 20 23 23 28 29 25 23 20 19 16 16 9 6 5 9 12 12 15 15 16 18 21 20 23 19 15 14 14 19 22 24 26 27 28 30 31 30 28 27 26 23 21 21 23
22 22 23 24 25 24 25 25 23 22 22 23 25 25 22 22 22 19 18 16 12 9 9 11 11 12 15 13 15 17 16 20 20 18 16 14 17 19 25 27 27 27 28 29 30 31 31 30 27 26 24 23 23 25
21 22 20 22 23 24 24 21 23 25 25 24 26 24 21 22 21 19 16 14 10 11 15 15 16 15 11 15 16 15 18 21 20 19 18 18 22 25 28 29 28 27 28 30 31 32 31 29 26 25 26 25 24 25
23 21 20 20 20 20 23 23 22 24 25 24 25 22 20 18 16 15 14 11 13 15 15 19 16 17 17 18 17 22 24 25 23 23 24 25 28 29 29 31 31 29 30 31 32 32 31 28 26 26 25 25 25 25
23 21 18 20 20 20 23 23 22 26 24 21 21 19 18 13 11 11 11 11 14 14 15 19 21 21 22 22 25 28 27 28 31 31 29 30 31 31 32 31 29 29 29 30 31 31 29 26 25 25 24 24 25 25
22 22 20 19 18 20 23 22 19 22 26 24 20 19 17 17 16 14 13 15 16 18 22 24 24 23 25 28 26 28 28 29 32 36 37 34 32 32 32 30 28 28 29 30 30 27 26 26 24 23 22 23 24 26
19 20 19 19 20 19 21 20 20 20 19 21 18 19 19 18 20 21 21 19 22 24 25 24 26 28 27 28 29 31 33 32 34 33 36 38 33 29 28 27 26 27 29 29 29 27 25 24 21 20 22 23 25 28
18 14 17 18 19 18 20 18 20 21 21 19 20 21 23 24 23 23 21 25 28 27 27 30 32 32 33 33 31 29 29 30 31 31 30 29 31 31 29 27 27 29 29 27 24 23 21 19 19 21 23 25 28 31
14 16 17 18 20 21 21 17 20 20 25 25 24 26 27 26 24 21 28 29 30 27 28 29 29 28 28 27 27 28 28 29 31 31 30 28 27 27 26 25 25 25 25 23 19 17 17 18 20 23 26 28 30 32
15 18 20 21 20 21 20 21 17 19 17 19 20 22 22 21 18 23 28 27 24 23 23 26 26 28 27 26 29 29 29 27 28 27 25 25 26 26 24 23 21 20 19 16 16 16 17 20 23 25 27 30 32 34
17 20 20 23 21 22 23 23 23 23 24 21 21 22 21 19 24 27 29 27 24 23 23 24 23 24 26 27 27 25 25 25 26 27 25 23 22 21 21 20 19 18 15 14 16 17 20 21 24 27 29 31 33 34
19 18 20 21 21 24 24 26 25 24 22 25 24 21 21 23 28 30 26 22 20 19 19 20 21 23 23 24 27 27 27 27 25 25 24 21 19 19 18 16 15 16 16 15 16 19 21 23 26 29 31 33 35 37
19 19 19 18 18 18 20 21 21 23 26 27 24 24 24 28 29 25 20 19 18 17 17 18 20 23 25 26 24 24 25 24 22 21 19 18 17 15 12 11 12 14 14 16 18 20 23 26 28 30 32 34 35 36
18 16 19 18 19 19 20 21 22 23 23 21 19 24 25 26 26 20 19 17 17 20 21 22 23 23 23 23 23 22 20 17 15 13 14 16 15 14 13 13 13 14 16 18 20 22 24 26 29 31 33 34 35 35
18 17 15 18 19 21 23 23 24 23 20 20 23 25 26 23 22 22 22 23 23 23 24 24 24 21 20 19 19 17 15 14 13 12 13 12 12 14 15 15 15 17 19 21 23 24 26 27 29 31 31 32 33 34
4 4 13 16 18 20 21 19 21 19 20 20 21 22 23 23 22 22 22 23 23 23 23 21 19 18 17 16 15 16 16 15 14 13 12 12 12 12 14 15 18 20 21 23 25 27 27 28 30 31 33 34 35 35
10 8 11 10 18 20 20 17 17 17 18 19 20 21 22 20 20 20 22 22 21 20 18 17 16 15 14 13 13 13 14 15 15 14 13 12 12 13 14 16 19 21 22 24 26 28 29 30 32 33 33 34 35 36
15 15 12 12 19 21 19 18 19 20 20 19 20 19 19 20 23 22 24 22 19 17 17 16 14 15 13 13 13 13 11 10 12 13 13 13 14 15 15 17 19 22 23 25 27 28 29 30 31 32 32 34 35 36
16 15 14 11 7 6 8 12 17 20 22 23 23 23 22 22 23 21 20 19 16 15 14 13 12 12 12 11 11 11 12 13 15 16 16 15 13 14 16 19 20 22 24 26 28 28 29 29 30 32 33 34 34 35
Wind_Direction
246 249 253 259 263 265 265 273 279 284 289 287 283 273 273 277 275 274 268 286 273 267 261 263 265 263 262 262 265 282 281 267 275 281 285 288 291 285 286 290 285 279 283 282 283 288 289 313 315 306 320 327 327 326
243 245 249 252 258 260 261 267 273 279 285 286 284 278 273 273 279 280 268 274 282 272 270 271 271 272 273 273 277 267 281 279 291 295 302 299 294 299 298 289 303 287 294 296 297 303 321 322 327 333 333 328 326 325
246 238 241 246 253 253 256 260 265 275 280 283 283 282 278 274 274 278 283 272 275 266 270 268 265 280 279 280 279 273 277 288 291 301 305 298 291 306 297 293 298 296 300 295 301 304 306 321 326 326 327 326 326 328
240 230 232 239 245 246 250 253 258 268 275 281 283 282 281 278 277 274 271 281 280 273 261 267 280 280 285 282 286 284 286 292 296 298 297 296 297 313 303 299 296 297 301 301 300 303 314 321 322 325 325 326 327 328
231 224 226 231 236 239 241 245 252 260 269 276 282 285 285 284 280 285 283 279 285 266 261 265 280 286 290 286 284 292 288 284 283 288 294 296 304 304 302 302 297 293 291 295 303 314 312 316 324 326 325 326 328 326
219 217 218 224 227 230 235 238 245 253 261 269 278 285 289 289 286 281 278 278 279 281 278 267 281 281 290 297 287 281 285 286 285 289 292 297 300 300 306 304 308 310 315 316 308 315 317 321 326 330 327 327 327 326
217 213 211 214 220 223 226 232 236 243 252 261 273 283 289 291 288 280 283 288 278 285 282 278 277 279 282 285 286 286 292 286 286 288 293 296 295 299 301 296 308 311 312 315 320 322 319 323 321 325 325 327 327 327
240 232 220 210 212 217 221 226 230 233 239 251 265 281 300 317 304 291 299 297 288 287 291 282 283 282 281 279 277 287 284 289 293 292 297 297 300 302 301 304 310 314 318 317 320 322 322 323 324 324 326 326 325 325
276 250 233 226 214 216 218 221 224 225 224 229 232 274 285 284 283 288 297 299 300 289 281 284 278 279 290 286 289 294 294 287 297 291 292 299 297 296 301 311 311 313 315 317 318 319 320 320 321 323 326 327 327 328
267 260 258 248 222 219 216 216 216 216 212 183 247 271 272 276 292 290 292 281 280 282 286 282 286 283 284 285 288 290 294 289 290 294 303 294 292 294 301 307 308 310 314 316 315 314 320 322 324 326 326 327 328 329
271 259 251 251 247 222 221 216 206 196 201 244 262 271 281 277 286 281 275 273 276 278 281 280 274 280 291 278 283 294 293 295 291 294 292 299 300 306 315 314 314 315 318 322 327 330 329 327 326 327 327 328 329 330
268 262 252 250 245 245 227 221 205 212 240 249 266 281 276 276 277 271 267 275 277 276 283 279 272 277 284 293 292 292 294 297 295 304 297 299 303 308 316 321 324 329 331 332 332 329 327 326 326 326 327 328 329 331
264 263 256 249 247 244 245 230 221 225 199 246 265 261 263 266 264 263 260 269 274 283 280 276 270 280 287 293 295 296 292 294 310 300 299 303 310 317 320 324 326 328 329 328 328 328 327 327 327 327 327 329 330 330
265 263 256 252 247 244 242 241 218 215 247 253 253 251 255 264 266 267 266 274 281 281 263 263 285 293 294 288 297 294 298 303 296 295 298 310 314 321 328 329 326 324 324 325 326 326 326 326 325 326 326 327 327 327
269 263 260 253 248 246 241 245 229 240 251 251 256 257 256 264 271 270 270 272 273 260 244 266 296 305 297 297 296 301 297 297 296 301 309 319 329 331 329 327 324 321 321 323 326 326 326 326 324 323 324 325 324 326
267 268 260 255 249 247 248 242 244 245 252 257 259 260 261 258 263 265 267 265 258 236 253 283 293 297 295 301 299 297 294 297 305 312 316 321 322 322 323 323 321 321 322 322 323 324 324 323 321 321 323 322 323 323
263 261 268 258 254 249 247 244 243 243 250 256 257 260 261 260 256 258 260 253 234 234 255 279 282 288 307 299 295 302 302 308 312 312 318 316 319 320 322 322 322 321 321 321 321 322 322 323 323 321 319 321 322 323
257 263 272 262 258 253 251 244 248 247 250 255 251 252 262 264 247 253 261 230 242 257 268 277 286 285 288 291 296 302 305 307 310 312 313 315 316 317 319 319 319 318 320 320 321 322 323 322 320 319 320 323 324 326
255 258 271 266 259 249 251 243 250 249 252 252 256 252 260 252 262 255 249 243 270 270 277 279 285 284 286 293 299 303 305 306 306 309 312 315 315 315 316 317 317 318 319 321 323 323 324 324 323 324 324 326 326 329
256 255 257 270 263 251 253 254 251 257 249 251 250 249 255 257 258 260 254 259 270 274 276 278 280 288 294 299 302 304 308 310 309 307 308 311 315 315 316 317 317 319 320 322 324 325 326 326 327 329 331 331 330 330
257 258 258 263 258 256 263 255 248 256 258 252 245 249 256 259 259 261 264 267 270 274 276 282 287 294 299 301 303 305 305 307 306 307 308 309 315 317 318 319 320 321 321 322 321 322 325 326 330 333 334 333 333 332
258 264 260 261 261 251 264 266 255 256 258 261 256 261 259 259 262 264 270 268 272 276 280 285 290 292 295 299 303 306 308 308 309 310 312 314 314 315 316 318 319 320 321 322 324 326 329 334 337 337 336 334 333 332
258 263 262 263 255 251 257 263 262 264 255 251 256 261 265 265 267 271 270 275 278 284 287 289 293 297 300 304 307 309 311 310 310 311 313 314 317 319 320 321 323 323 323 328 332 335 337 340 339 337 335 334 334 333
264 257 255 257 258 253 256 258 263 262 264 260 259 261 265 267 272 270 273 277 286 293 295 296 298 297 301 305 305 309 313 315 316 317 319 317 316 320 324 326 328 331 333 338 341 343 342 339 337 336 337 334 335 334
259 256 258 254 258 256 255 254 258 262 260 264 263 267 271 275 271 273 277 285 290 292 296 300 302 304 303 306 310 317 322 322 320 318 322 321 321 323 325 329 333 338 344 344 340 340 338 340 341 338 337 337 336 337
262 263 257 256 258 256 256 256 257 260 264 264 268 273 277 276 274 276 283 293 296 298 301 305 308 310 312 315 314 315 318 322 322 318 323 323 322 319 320 323 328 334 340 342 341 340 341 341 339 338 338 338 338 337
264 266 265 270 267 266 265 268 269 268 265 265 268 269 272 272 274 282 292 297 299 306 313 317 315 314 314 316 321 323 325 325 323 324 330 333 335 335 335 334 336 339 343 344 344 342 341 339 339 339 338 338 339 339
270 269 264 264 266 267 266 267 267 269 270 274 272 269 271 273 280 290 294 299 308 312 314 316 318 319 320 321 323 325 329 336 343 351 354 351 349 350 350 352 354 351 346 343 342 342 342 341 339 339 339 339 340 342
273 272 273 269 271 273 270 270 271 274 277 274 274 274 278 286 293 294 296 299 305 307 306 309 313 321 324 329 334 338 341 340 336 336 337 339 340 339 345 349 349 347 344 342 343 343 343 344 343 342 342 342 342 343
352 326 292 285 280 277 278 280 281 283 285 284 287 288 289 292 296 302 300 302 303 304 308 311 315 318 322 325 330 333 334 332 329 330 332 336 340 347 344 345 344 343 343 342 341 342 344 344 344 344 343 343 344 344
114 129 309 310 287 281 285 290 291 293 296 295 294 291 291 295 299 303 305 305 307 309 312 314 316 317 320 324 327 331 333 335 335 336 343 351 352 349 348 346 344 344 343 343 343 343 343 343 343 343 344 344 343 343
139 151 144 153 283 276 283 290 292 294 295 296 296 298 299 297 295 300 299 298 301 305 306 310 314 315 325 331 334 337 348 355 347 344 345 346 346 346 347 346 345 345 345 345 344 343 343 343 344 343 344 342 345 345
142 135 133 123 88 60 343 322 302 292 288 287 287 288 290 290 290 288 295 303 308 313 315 319 327 330 336 341 345 347 347 342 339 338 340 341 346 349 348 346 346 347 346 343 343 345 345 344 343 342 343 342 345 347